Weather in Avadan

Russia / Republic of Dagestan     41°56′04″N   48°20′20″E
temp.,
°C
wind,
m/s
gust,
m/s
humid.,
%
clouds,
%
prec.,
mm/h
press.,
hPa
HPBL,
m
27 september, mon
mon2700:00+14ssw46670 0.0 1017132
03:00+14wsw22620 0.0 101640
06:00+15w22480 0.0 101628
09:00+20ene12400 0.0 10151009
12:00+22e33390 0.0 10141283
15:00+20ene444847 0.0 1014991
18:00+18ene226697 0.2 1015422
21:00+17ne127496 1.6 1016129
28 september, tue
tue2800:00+15nne3386100 1.3 1017381
03:00+15nnw3476100 2.1 1017607
06:00+14nw3479100 0.4 1018467
09:00+14nw2274100 0.7 1018326
12:00+14nnw1271100 0.2 1018468
15:00+15nw1272100 0.4 1019421
18:00+14nw2276100 0.3 1020156
21:00+15sw1174100 0.3 1021102
29 september, wed
wed2900:00+15w0072100 0.0 102174
03:00+15n0171100 0.1 102075
06:00+14s1170100 0.0 102173
09:00+14sse1171100 0.3 102183
12:00+14wsw1174100 0.6 1021168
15:00+13nnw2286100 2.3 1021238
18:00+13nw3485100 1.5 1022304
21:00+13nw3488100 3.0 1022248
30 september, thu
thu3000:00+13n4594100 8.8 1021413
03:00+12n6895100 24.3 1023619
06:00+11nnw81193100 8.3 10251068
09:00+10nw61080100 10.9 1027758
12:00+10nw6983100 0.4 1028708
15:00+12nnw686899 0.6 10281191
18:00+11nw577199 0.1 1029575
21:00+11nw466997 0.4 1030460
1 october, fri
fri100:00+11nw466890 0.1 1030414
03:00+11wnw3567100 0.1 1030279
06:00+11wnw3465100 0.0 1030233
09:00+11nw3462100 0.0 1031683
12:00+12nnw2266100 0.1 1031772
15:00+11nnw2169100 0.1 1031561
18:00+11w1173100 0.1 1032140
21:00+11sw1175100 0.2 1032115